Estación Meteorológica Peña el Pijo (Robertgarden) [ 09/29/20 20:45:33 CEST ]

Fecha Hora Presion(HPa) Temp (°C) Humedad % Rocio (°C) Viento ( m/s) Direccion Lluvia 1Hora(mm) Lluvia 24H(mm) LLuvia Total(mm)
2020-May-21 01:09:08 1012.000 - - - - W     39.88
2020-May-21 02:09:31 1011.600 - - - - W     39.88
2020-May-21 03:09:23 1011.500 - - - - W     39.88
2020-May-21 04:09:17 1011.200 - - - - W     39.88
2020-May-21 05:09:38 1011.400 - - - - W     39.88
2020-May-21 06:09:29 1011.500 - - - - W     39.88
2020-May-21 07:09:40 1012.000 - - - - W     39.88
2020-May-21 08:09:44 1012.400 - - - - W     39.88
2020-May-21 09:09:04 1012.600 - - - - W     39.88
2020-May-21 10:09:57 1012.700 - - - - W     39.88
2020-May-21 11:09:36 1012.700 - - - - W     39.88
2020-May-21 12:09:01 1012.800 - - - - W     39.88
2020-May-21 13:09:28 1012.700 - - - - W     39.88
2020-May-21 14:09:24 1012.500 - - - - W     39.88
2020-May-21 15:09:18 1012.100 - - - - W     39.88
2020-May-21 16:09:10 1012.200 - - - - W     39.88
2020-May-21 17:09:05 1012.100 - - - - W     39.88
2020-May-21 18:09:05 1012.000 - - - - W     39.88
2020-May-21 19:09:17 1012.300 - - - - W     39.88
2020-May-21 20:08:44 1012.600 - - - - W     39.88
2020-May-21 21:09:02 1013.500 - - - - W     39.88
2020-May-21 22:09:06 1014.400 - - - - W     39.88
2020-May-21 23:09:36 1015.000 - - - - W     39.88

Temperatura Máxima:    Temperatura Mínima:
Presión Máxima:1015.000 Hpa    Presión Mínima:1011.200 Hpa


Volver